Terug naar catalogus

CZ-2C DEB

ActiefSSO
NORAD 38863·DEBRIS·🇨🇳 China

Gelanceerd Oct 14, 2012 vanaf Taiyuan Satellite Launch Center

Loading…

Volgende Passages (komende 24 uur)

TLE

VersSource: Space-Track

Epoch: Sep 14, 2026, 22:32 UTC

1 38863U 12056D   26257.93922455  .00015705  00000-0  60737-3 0  9997
2 38863  97.5375 328.3327 0009416 103.4142 256.8146 15.26265984756973

Volg CZ-2C DEB in realtime met AllMySat

Download on the App Store